{"data":{"norad_id":59380,"epoch":"2026-09-21T17:13:51.340512Z","epoch_age_seconds":57105,"freshness":"FRESH","line1":"1 59380U 24062G   26264.71795533  .00000438  00000+0  24091-4 0  9993","line2":"2 59380  53.1615  63.7604 0001108  83.6386 276.4743 15.34393669139665","mean_motion":15.34393669,"eccentricity":0.0001108,"inclination_deg":53.1615,"raan_deg":63.7604,"arg_perigee_deg":83.6386,"mean_anomaly_deg":276.4743,"bstar":2.4091e-5,"rev_number":13966,"period_min":93.848145302795,"perigee_km":461.96409015445,"apogee_km":463.48002452156,"semimajor_km":6840.859057338,"source":"CELESTRAK","updated_at":"2026-09-22T09:00:48.909078Z"}}